Wind_Speed
122 121 121 122 123 124 124 125 124 121 120 120 122 125 125 123 124 125 123 122 121 122 123 125 127 127 125 122 119 116 114 112 112 111 108 105 105 102
125 127 127 127 127 129 130 130 130 130 129 131 132 131 132 131 130 131 129 128 128 126 124 123 123 126 128 130 128 125 122 119 117 116 114 112 111 109
133 133 135 137 138 138 138 136 136 137 137 135 136 136 136 137 138 136 135 136 134 134 134 132 130 128 127 128 129 131 130 128 125 122 120 118 118 114
138 139 139 139 139 140 140 139 138 138 135 132 133 133 134 136 137 138 139 140 139 139 138 137 137 137 136 134 133 134 132 133 132 130 127 124 122 121
136 138 138 138 136 136 136 135 134 135 134 133 133 136 136 139 139 139 144 144 143 142 144 143 141 140 140 142 140 136 135 134 134 136 136 133 130 126
136 137 138 138 135 134 134 131 126 124 121 120 119 118 121 123 126 130 132 137 142 147 148 146 143 142 142 142 144 144 143 140 138 138 137 138 138 135
136 136 134 131 128 124 122 121 118 116 115 114 112 111 110 111 115 120 122 125 128 134 141 146 148 147 145 145 145 146 148 149 146 144 143 141 140 141
131 125 122 120 119 117 115 114 113 114 115 115 114 114 114 116 117 118 116 118 120 129 133 130 134 140 146 148 147 148 148 151 153 152 150 147 144 144
121 121 120 121 123 124 124 124 125 126 126 128 128 128 127 128 129 129 129 127 124 124 128 124 132 132 135 139 141 142 145 151 150 154 154 154 153 149
125 127 129 131 132 131 129 125 125 124 125 128 125 124 125 127 128 128 129 129 127 130 132 125 129 127 131 135 136 139 140 140 146 152 156 160 160 157
134 134 133 130 128 125 121 117 115 115 119 121 119 117 117 117 121 123 121 122 118 122 127 128 128 132 134 130 130 131 135 138 137 139 143 149 159 164
130 125 122 120 119 117 114 112 109 111 112 112 109 106 106 106 111 113 110 110 110 111 119 119 120 125 125 129 132 134 136 135 134 132 133 136 142 154
115 114 113 113 109 106 105 104 103 104 104 102 101 100 101 101 103 106 105 103 102 100 105 109 110 114 115 117 123 127 132 134 136 136 133 128 129 134
105 105 105 103 102 100 99 99 99 99 96 96 95 95 94 94 95 96 97 97 96 95 100 103 103 106 107 105 106 117 124 127 129 130 132 134 133 128
97 96 95 94 92 93 93 93 92 92 90 87 85 85 86 88 88 89 90 91 91 90 92 96 100 100 99 97 98 103 112 117 120 122 127 129 131 135
89 85 84 84 85 87 87 87 86 84 81 77 76 79 80 81 81 83 83 85 82 83 87 91 92 93 91 91 92 96 106 108 117 115 118 120 123 125
80 76 77 78 79 80 81 79 76 74 72 73 70 70 72 74 76 78 77 79 76 78 82 86 87 85 84 87 89 92 101 104 111 110 109 109 112 115
73 72 73 74 75 75 71 69 69 67 64 64 64 66 67 70 71 72 72 72 72 75 76 80 79 77 77 79 85 89 91 94 97 101 101 99 104 109
67 66 66 68 66 64 62 62 62 60 60 61 63 64 63 65 66 67 68 66 66 69 71 71 72 70 68 70 82 76 82 88 92 96 98 94 92 98
61 62 62 60 58 57 56 56 56 57 58 59 59 59 60 61 63 63 62 60 59 61 63 64 65 62 59 66 71 75 76 86 86 87 91 89 84 89
56 56 57 54 51 51 52 54 55 55 53 54 55 56 56 56 57 55 55 55 55 56 59 60 57 53 55 58 66 70 71 72 78 78 81 80 78 78
51 50 50 48 48 49 50 51 49 50 50 50 49 49 48 49 49 50 50 49 48 49 51 52 50 48 50 55 62 63 66 70 69 69 73 73 72 71
44 44 45 46 46 44 44 44 44 44 44 44 43 44 45 44 44 44 44 44 44 45 45 48 48 46 48 51 53 57 61 65 63 57 61 67 67 65
Wind_Direction
272 271 271 271 270 270 270 269 268 266 265 265 264 264 263 261 260 257 255 254 254 254 254 254 254 253 253 252 251 249 249 248 245 244 244 245 246 247
273 272 271 271 271 271 270 269 268 267 266 265 264 264 263 262 261 260 259 256 253 251 251 251 253 253 253 252 251 251 249 247 247 247 245 243 243 244
271 272 272 272 273 272 272 270 269 268 267 267 266 264 263 261 261 261 260 259 257 255 251 249 249 249 251 251 251 250 250 250 248 246 247 246 242 241
271 272 273 273 272 272 272 272 271 270 268 267 266 264 263 262 261 261 260 259 257 256 254 252 250 248 248 248 249 249 249 249 249 248 246 246 245 243
274 273 273 274 274 273 273 272 270 269 268 267 265 263 263 262 260 259 258 257 257 256 254 253 252 251 248 247 247 246 247 248 248 247 247 246 244 244
276 275 275 275 275 274 273 272 270 269 268 266 265 264 263 262 261 259 258 256 256 256 255 254 253 251 250 248 247 246 245 246 247 246 246 246 246 244
276 275 274 274 273 273 272 272 271 270 269 267 265 264 263 262 260 259 257 256 256 255 254 255 254 254 253 251 248 245 244 243 244 245 245 245 245 245
276 275 275 274 274 274 274 273 271 271 270 269 267 265 263 261 261 260 259 258 255 255 254 253 254 254 253 253 251 248 245 243 243 244 244 245 244 244
276 275 275 276 275 275 275 274 273 272 270 268 267 266 264 262 261 260 259 258 256 255 255 253 253 253 253 252 252 250 248 245 242 242 243 243 243 242
276 276 276 277 277 277 276 275 273 272 270 269 268 265 264 262 262 261 260 259 258 257 257 255 254 253 252 253 253 253 252 249 246 244 241 241 241 241
276 277 276 276 276 275 274 273 272 271 269 268 268 267 266 264 264 263 262 260 258 257 257 256 254 254 254 253 253 254 254 253 251 249 246 243 242 240
276 275 276 275 274 274 273 272 271 270 268 268 268 267 265 264 263 263 262 261 259 258 257 256 254 254 253 253 252 252 252 253 253 252 249 247 245 242
276 276 275 274 273 273 272 272 270 268 268 268 268 267 265 264 263 263 263 261 260 259 258 258 255 254 253 251 252 252 252 251 251 252 252 250 248 246
276 275 274 274 274 274 273 271 270 269 268 267 267 266 267 267 265 264 263 262 260 257 256 257 256 255 254 252 250 251 252 251 251 250 250 250 249 246
275 274 274 274 274 273 272 271 270 269 269 269 270 270 268 265 264 263 261 260 260 259 258 257 257 256 255 253 251 250 251 252 251 250 250 248 247 248
274 274 274 274 273 271 270 269 269 271 272 272 268 265 266 266 265 263 262 261 260 260 259 258 257 257 256 255 252 251 251 250 251 249 248 248 249 247
273 273 272 271 269 269 269 270 272 271 270 267 268 267 264 263 262 262 262 262 262 261 260 259 258 258 256 255 254 251 251 249 252 251 250 249 249 248
272 271 270 269 267 268 271 271 270 270 270 269 266 264 263 263 263 264 264 264 263 262 261 260 258 257 255 255 253 252 252 253 252 253 251 248 247 248
270 269 268 268 270 270 270 270 271 270 269 267 266 266 266 267 267 266 264 263 262 261 260 260 260 258 256 254 254 251 252 251 251 251 250 248 246 247
268 268 269 270 270 271 271 271 269 268 267 269 270 270 269 268 267 266 266 265 263 262 261 259 257 257 255 253 255 251 246 250 250 250 252 251 247 246
267 267 268 270 271 269 268 267 268 270 272 271 269 268 267 267 266 266 266 264 263 261 261 261 260 258 255 253 253 253 251 248 252 253 252 251 250 247
266 266 268 267 265 266 267 270 273 272 270 269 268 268 267 265 265 264 264 264 263 263 262 262 260 255 250 247 249 250 251 250 245 246 252 251 247 244
263 264 264 265 267 269 270 270 269 270 269 269 269 268 268 268 268 267 265 264 263 259 259 261 259 257 254 251 253 254 253 255 253 248 247 250 251 247
Height
10428 10429 10429 10430 10430 10430 10431 10431 10432 10439 10441 10441 10438 10436 10438 10442 10445 10446 10453 10459 10466 10471 10476 10481 10488 10496 10504 10511 10520 10530 10538 10547 10556 10565 10575 10584 10589 10599
10394 10395 10394 10393 10393 10391 10390 10391 10391 10394 10404 10402 10401 10401 10400 10403 10406 10408 10412 10418 10425 10431 10439 10446 10452 10458 10466 10475 10484 10494 10505 10515 10523 10533 10543 10554 10562 10572
10354 10354 10354 10351 10350 10348 10347 10347 10348 10347 10355 10360 10359 10360 10361 10362 10364 10366 10370 10375 10382 10388 10397 10406 10414 10422 10429 10437 10445 10456 10466 10479 10489 10500 10509 10519 10530 10542
10314 10312 10310 10305 10306 10303 10301 10300 10300 10299 10304 10311 10312 10315 10317 10316 10320 10322 10324 10329 10334 10343 10350 10358 10370 10382 10390 10398 10406 10415 10425 10437 10451 10462 10473 10487 10495 10506
10269 10267 10266 10262 10261 10257 10255 10255 10253 10253 10254 10261 10267 10267 10269 10269 10272 10276 10279 10279 10285 10293 10299 10310 10322 10333 10345 10356 10366 10375 10384 10395 10411 10420 10433 10447 10458 10469
10226 10223 10221 10217 10215 10212 10208 10208 10207 10209 10210 10212 10218 10222 10223 10224 10227 10228 10229 10234 10244 10243 10249 10259 10272 10285 10297 10307 10322 10333 10343 10354 10365 10378 10391 10404 10418 10431
10183 10179 10176 10173 10171 10168 10167 10168 10167 10169 10170 10172 10178 10180 10183 10183 10181 10181 10188 10192 10199 10201 10203 10211 10225 10236 10249 10259 10270 10283 10297 10311 10323 10334 10348 10362 10375 10389
10142 10138 10135 10132 10129 10128 10127 10128 10131 10130 10129 10130 10137 10141 10143 10142 10139 10140 10149 10154 10166 10153 10153 10177 10175 10186 10194 10201 10217 10231 10248 10263 10277 10291 10303 10317 10331 10346
10102 10100 10098 10094 10090 10090 10090 10090 10090 10089 10090 10088 10091 10094 10099 10098 10098 10099 10102 10108 10119 10118 10114 10143 10132 10144 10149 10154 10162 10177 10194 10209 10224 10241 10257 10271 10285 10300
10066 10063 10059 10056 10050 10047 10047 10049 10047 10047 10041 10034 10043 10049 10050 10049 10048 10050 10055 10063 10075 10080 10080 10097 10091 10105 10108 10112 10121 10129 10141 10159 10172 10188 10204 10220 10236 10253
10026 10023 10021 10018 10011 10006 10005 10007 10009 10006 9994 9993 9999 10005 10007 10010 10004 10003 10014 10016 10031 10033 10035 10043 10059 10058 10063 10078 10087 10092 10095 10104 10123 10139 10154 10172 10187 10201
9988 9985 9980 9976 9971 9968 9967 9967 9970 9962 9955 9955 9961 9966 9967 9969 9962 9960 9972 9977 9984 9996 9989 9997 10010 10011 10028 10037 10043 10052 10055 10061 10071 10087 10105 10120 10137 10151
9951 9947 9940 9933 9933 9934 9930 9928 9927 9921 9922 9924 9926 9927 9928 9931 9927 9925 9931 9940 9949 9960 9956 9954 9965 9970 9984 10001 10002 10012 10011 10023 10029 10042 10057 10074 10091 10105
9914 9907 9902 9900 9899 9897 9895 9891 9888 9887 9892 9892 9892 9894 9896 9898 9897 9897 9898 9903 9912 9921 9918 9918 9929 9932 9942 9960 9977 9968 9970 9980 9985 10001 10015 10029 10040 10058
9878 9875 9872 9870 9868 9864 9859 9858 9856 9856 9859 9865 9869 9867 9864 9861 9864 9865 9866 9870 9878 9886 9890 9889 9888 9897 9909 9926 9938 9941 9934 9938 9944 9962 9967 9981 9993 10004
9844 9846 9845 9842 9837 9832 9829 9828 9828 9831 9835 9839 9838 9834 9834 9835 9837 9833 9839 9840 9851 9855 9854 9854 9858 9867 9881 9892 9900 9907 9896 9906 9895 9916 9925 9938 9952 9970
9818 9820 9816 9812 9809 9805 9804 9806 9808 9808 9810 9809 9812 9812 9810 9808 9807 9807 9814 9816 9826 9827 9825 9825 9830 9841 9852 9856 9863 9868 9860 9867 9860 9878 9893 9912 9924 9935
9792 9792 9788 9785 9784 9784 9786 9786 9784 9785 9788 9787 9786 9785 9784 9784 9785 9788 9791 9794 9799 9798 9799 9798 9803 9814 9823 9828 9825 9828 9834 9841 9843 9844 9855 9875 9887 9891
9767 9766 9765 9762 9763 9764 9765 9764 9763 9765 9764 9762 9761 9762 9766 9766 9766 9765 9767 9772 9775 9773 9772 9776 9781 9788 9799 9801 9788 9811 9809 9807 9809 9810 9814 9834 9857 9859
9744 9743 9743 9743 9745 9746 9746 9745 9743 9742 9743 9744 9745 9746 9745 9745 9744 9745 9747 9750 9752 9751 9751 9753 9757 9766 9776 9770 9769 9773 9781 9771 9779 9788 9791 9804 9827 9831
9726 9726 9725 9727 9729 9728 9726 9725 9724 9726 9729 9728 9727 9726 9727 9727 9726 9728 9729 9729 9730 9731 9730 9732 9741 9749 9752 9752 9742 9744 9752 9760 9757 9767 9771 9783 9796 9808
9709 9710 9711 9712 9711 9710 9710 9710 9712 9711 9710 9709 9710 9710 9711 9710 9710 9711 9711 9712 9715 9715 9714 9716 9721 9726 9728 9726 9719 9724 9728 9728 9739 9748 9749 9757 9767 9779
9696 9697 9696 9695 9696 9697 9697 9697 9696 9695 9694 9694 9695 9694 9694 9696 9696 9696 9696 9697 9697 9698 9699 9698 9700 9705 9708 9709 9710 9710 9710 9709 9717 9733 9736 9735 9744 9754